contact:dominique.lefevre@mio.osupytheas.fr, maurice.libes@osupytheas.fr, didier.mallarino@osupytheas.fr
Project:EMSO http://www.emso-fr.org/EMSO-France
Depth: 2436.0 m
Title:EMSO Ligure Ouest : Data MII capteur MICROCAT
DateTime_Computer,Latitude,Longitude,Temperature,Conductivity,Pressure,DateTime_Instrument
DateTime_Computer,Latitude,Longitude,degC,S m-1,dbar,DateTime_Instrument
2022-07-17T00:02:09Z,42.805,6.029,13.3005,4.60045,2470.661,2022-7-17T02:03:55Z
2022-07-17T00:05:12Z,42.805,6.029,13.3004,4.60044,2470.646,2022-7-17T02:06:58Z
2022-07-17T00:08:15Z,42.805,6.029,13.3008,4.60051,2470.6,2022-7-17T02:10:01Z
2022-07-17T00:11:18Z,42.805,6.029,13.3008,4.60055,2470.624,2022-7-17T02:13:04Z
2022-07-17T00:14:21Z,42.805,6.029,13.3004,4.60049,2470.661,2022-7-17T02:16:08Z
2022-07-17T00:17:24Z,42.805,6.029,13.3004,4.60047,2470.67,2022-7-17T02:19:11Z
2022-07-17T00:20:27Z,42.805,6.029,13.3005,4.60044,2470.624,2022-7-17T02:22:14Z
2022-07-17T00:23:30Z,42.805,6.029,13.3003,4.60044,2470.646,2022-7-17T02:25:17Z
2022-07-17T00:26:34Z,42.805,6.029,13.3006,4.60048,2470.614,2022-7-17T02:28:20Z
2022-07-17T00:29:37Z,42.805,6.029,13.3009,4.60050,2470.646,2022-7-17T02:31:23Z
2022-07-17T00:32:40Z,42.805,6.029,13.3007,4.60052,2470.6,2022-7-17T02:34:26Z
2022-07-17T00:35:43Z,42.805,6.029,13.3008,4.60056,2470.633,2022-7-17T02:37:29Z
2022-07-17T00:38:46Z,42.805,6.029,13.3005,4.60053,2470.646,2022-7-17T02:40:33Z
2022-07-17T00:41:49Z,42.805,6.029,13.3004,4.60054,2470.646,2022-7-17T02:43:36Z
2022-07-17T00:44:52Z,42.805,6.029,13.3006,4.60046,2470.624,2022-7-17T02:46:39Z
2022-07-17T00:47:55Z,42.805,6.029,13.3008,4.60052,2470.624,2022-7-17T02:49:42Z
2022-07-17T00:50:59Z,42.805,6.029,13.3008,4.60046,2470.637,2022-7-17T02:52:45Z
2022-07-17T00:54:02Z,42.805,6.029,13.3006,4.60043,2470.637,2022-7-17T02:55:48Z
2022-07-17T00:57:05Z,42.805,6.029,13.3005,4.60045,2470.614,2022-7-17T02:58:51Z
2022-07-17T01:00:08Z,42.805,6.029,13.3010,4.60050,2470.637,2022-7-17T03:01:54Z
2022-07-17T01:03:11Z,42.805,6.029,13.3005,4.60044,2470.577,2022-7-17T03:04:57Z
2022-07-17T01:06:14Z,42.805,6.029,13.3008,4.60044,2470.624,2022-7-17T03:08:01Z
2022-07-17T01:09:17Z,42.805,6.029,13.3004,4.60044,2470.624,2022-7-17T03:11:04Z
2022-07-17T01:12:20Z,42.805,6.029,13.3006,4.60043,2470.577,2022-7-17T03:14:07Z
2022-07-17T01:15:23Z,42.805,6.029,13.3004,4.60043,2470.6,2022-7-17T03:17:10Z
2022-07-17T01:18:27Z,42.805,6.029,13.3009,4.60049,2470.614,2022-7-17T03:20:13Z
2022-07-17T01:21:30Z,42.805,6.029,13.3005,4.60052,2470.577,2022-7-17T03:23:16Z
2022-07-17T01:24:33Z,42.805,6.029,13.3007,4.60044,2470.577,2022-7-17T03:26:19Z
2022-07-17T01:27:36Z,42.805,6.029,13.3011,4.60046,2470.591,2022-7-17T03:29:22Z
2022-07-17T01:30:39Z,42.805,6.029,13.3009,4.60047,2470.614,2022-7-17T03:32:26Z
2022-07-17T01:33:42Z,42.805,6.029,13.3003,4.60046,2470.577,2022-7-17T03:35:29Z
2022-07-17T01:36:45Z,42.805,6.029,13.3008,4.60044,2470.591,2022-7-17T03:38:32Z
2022-07-17T01:39:48Z,42.805,6.029,13.3007,4.60042,2470.553,2022-7-17T03:41:35Z
2022-07-17T01:42:52Z,42.805,6.029,13.3003,4.60043,2470.577,2022-7-17T03:44:38Z
2022-07-17T01:45:55Z,42.805,6.029,13.3005,4.60043,2470.553,2022-7-17T03:47:41Z
2022-07-17T01:48:58Z,42.805,6.029,13.3007,4.60043,2470.567,2022-7-17T03:50:44Z
2022-07-17T01:52:01Z,42.805,6.029,13.3004,4.60043,2470.577,2022-7-17T03:53:47Z
2022-07-17T01:55:04Z,42.805,6.029,13.3005,4.60045,2470.577,2022-7-17T03:56:51Z
2022-07-17T01:58:07Z,42.805,6.029,13.3002,4.60042,2470.553,2022-7-17T03:59:54Z
2022-07-17T02:01:10Z,42.805,6.029,13.3005,4.60042,2470.567,2022-7-17T04:02:57Z
2022-07-17T02:04:13Z,42.805,6.029,13.3005,4.60044,2470.577,2022-7-17T04:06:00Z
2022-07-17T02:07:17Z,42.805,6.029,13.3008,4.60041,2470.577,2022-7-17T04:09:03Z
2022-07-17T02:10:20Z,42.805,6.029,13.3006,4.60042,2470.53,2022-7-17T04:12:06Z
2022-07-17T02:13:23Z,42.805,6.029,13.3008,4.60044,2470.553,2022-7-17T04:15:09Z
2022-07-17T02:16:26Z,42.805,6.029,13.3005,4.60041,2470.567,2022-7-17T04:18:12Z
2022-07-17T02:19:29Z,42.805,6.029,13.3005,4.60040,2470.53,2022-7-17T04:21:15Z
2022-07-17T02:22:32Z,42.805,6.029,13.3009,4.60042,2470.53,2022-7-17T04:24:19Z
2022-07-17T02:25:35Z,42.805,6.029,13.3004,4.60044,2470.567,2022-7-17T04:27:22Z
2022-07-17T02:28:38Z,42.805,6.029,13.3003,4.60042,2470.52,2022-7-17T04:30:25Z
2022-07-17T02:31:41Z,42.805,6.029,13.3004,4.60043,2470.567,2022-7-17T04:33:28Z
2022-07-17T02:34:45Z,42.805,6.029,13.3006,4.60044,2470.507,2022-7-17T04:36:31Z
2022-07-17T02:37:48Z,42.805,6.029,13.3005,4.60043,2470.52,2022-7-17T04:39:34Z
2022-07-17T02:40:51Z,42.805,6.029,13.3009,4.60044,2470.483,2022-7-17T04:42:37Z
2022-07-17T02:43:54Z,42.805,6.029,13.3004,4.60042,2470.53,2022-7-17T04:45:40Z
2022-07-17T02:46:57Z,42.805,6.029,13.3004,4.60040,2470.507,2022-7-17T04:48:44Z
2022-07-17T02:50:00Z,42.805,6.029,13.3005,4.60044,2470.507,2022-7-17T04:51:47Z
2022-07-17T02:53:03Z,42.805,6.029,13.3004,4.60042,2470.483,2022-7-17T04:54:50Z
2022-07-17T02:56:06Z,42.805,6.029,13.3006,4.60042,2470.52,2022-7-17T04:57:53Z
2022-07-17T02:59:10Z,42.805,6.029,13.3006,4.60039,2470.507,2022-7-17T05:00:56Z
2022-07-17T03:02:13Z,42.805,6.029,13.3009,4.60040,2470.483,2022-7-17T05:03:59Z
2022-07-17T03:05:16Z,42.805,6.029,13.3004,4.60039,2470.507,2022-7-17T05:07:02Z
2022-07-17T03:08:19Z,42.805,6.029,13.3005,4.60042,2470.507,2022-7-17T05:10:05Z
2022-07-17T03:11:22Z,42.805,6.029,13.3006,4.60044,2470.507,2022-7-17T05:13:09Z
2022-07-17T03:14:25Z,42.805,6.029,13.3005,4.60041,2470.46,2022-7-17T05:16:12Z
2022-07-17T03:17:28Z,42.805,6.029,13.3007,4.60043,2470.483,2022-7-17T05:19:15Z
2022-07-17T03:20:31Z,42.805,6.029,13.3006,4.60043,2470.507,2022-7-17T05:22:18Z
2022-07-17T03:23:35Z,42.805,6.029,13.3005,4.60041,2470.474,2022-7-17T05:25:21Z
2022-07-17T03:26:38Z,42.805,6.029,13.3004,4.60041,2470.46,2022-7-17T05:28:24Z
2022-07-17T03:29:41Z,42.805,6.029,13.3006,4.60041,2470.507,2022-7-17T05:31:27Z
2022-07-17T03:32:44Z,42.805,6.029,13.3004,4.60039,2470.483,2022-7-17T05:34:30Z
2022-07-17T03:35:47Z,42.805,6.029,13.3006,4.60040,2470.483,2022-7-17T05:37:34Z
2022-07-17T03:38:50Z,42.805,6.029,13.3005,4.60041,2470.483,2022-7-17T05:40:37Z
2022-07-17T03:41:53Z,42.805,6.029,13.3006,4.60039,2470.497,2022-7-17T05:43:40Z
2022-07-17T03:44:56Z,42.805,6.029,13.3008,4.60044,2470.46,2022-7-17T05:46:43Z
2022-07-17T03:48:00Z,42.805,6.029,13.3005,4.60041,2470.507,2022-7-17T05:49:46Z
2022-07-17T03:51:03Z,42.805,6.029,13.3004,4.60042,2470.46,2022-7-17T05:52:49Z
2022-07-17T03:54:06Z,42.805,6.029,13.3004,4.60042,2470.497,2022-7-17T05:55:52Z
2022-07-17T03:57:09Z,42.805,6.029,13.3008,4.60041,2470.483,2022-7-17T05:58:55Z
2022-07-17T04:00:12Z,42.805,6.029,13.3006,4.60041,2470.474,2022-7-17T06:01:59Z
2022-07-17T04:03:15Z,42.805,6.029,13.3004,4.60041,2470.474,2022-7-17T06:05:02Z
2022-07-17T04:06:18Z,42.805,6.029,13.3006,4.60041,2470.497,2022-7-17T06:08:05Z
2022-07-17T04:09:21Z,42.805,6.029,13.3002,4.60040,2470.45,2022-7-17T06:11:08Z
2022-07-17T04:12:24Z,42.805,6.029,13.3005,4.60039,2470.483,2022-7-17T06:14:11Z
2022-07-17T04:15:28Z,42.805,6.029,13.3006,4.60039,2470.483,2022-7-17T06:17:14Z
2022-07-17T04:18:31Z,42.805,6.029,13.3003,4.60039,2470.474,2022-7-17T06:20:17Z
2022-07-17T04:21:34Z,42.805,6.029,13.3006,4.60039,2470.474,2022-7-17T06:23:20Z
2022-07-17T04:24:37Z,42.805,6.029,13.3006,4.60041,2470.474,2022-7-17T06:26:23Z
2022-07-17T04:27:40Z,42.805,6.029,13.3006,4.60039,2470.46,2022-7-17T06:29:27Z
2022-07-17T04:30:43Z,42.805,6.029,13.3000,4.60039,2470.46,2022-7-17T06:32:30Z
2022-07-17T04:33:46Z,42.805,6.029,13.3003,4.60040,2470.483,2022-7-17T06:35:33Z
2022-07-17T04:36:50Z,42.805,6.029,13.3004,4.60040,2470.474,2022-7-17T06:38:36Z
2022-07-17T04:39:53Z,42.805,6.029,13.3004,4.60039,2470.45,2022-7-17T06:41:39Z
2022-07-17T04:42:56Z,42.805,6.029,13.3003,4.60040,2470.497,2022-7-17T06:44:42Z
2022-07-17T04:45:59Z,42.805,6.029,13.3004,4.60039,2470.474,2022-7-17T06:47:45Z
2022-07-17T04:49:02Z,42.805,6.029,13.3007,4.60039,2470.46,2022-7-17T06:50:48Z
2022-07-17T04:52:05Z,42.805,6.029,13.3006,4.60041,2470.437,2022-7-17T06:53:52Z
2022-07-17T04:55:08Z,42.805,6.029,13.3006,4.60040,2470.46,2022-7-17T06:56:55Z
2022-07-17T04:58:11Z,42.805,6.029,13.3007,4.60039,2470.474,2022-7-17T06:59:58Z
2022-07-17T05:01:14Z,42.805,6.029,13.3002,4.60040,2470.437,2022-7-17T07:03:01Z
2022-07-17T05:04:18Z,42.805,6.029,13.3008,4.60039,2470.413,2022-7-17T07:06:04Z
2022-07-17T05:07:21Z,42.805,6.029,13.3003,4.60039,2470.474,2022-7-17T07:09:07Z
2022-07-17T05:10:24Z,42.805,6.029,13.3003,4.60040,2470.46,2022-7-17T07:12:10Z
2022-07-17T05:13:27Z,42.805,6.029,13.3005,4.60042,2470.497,2022-7-17T07:15:13Z
2022-07-17T05:16:30Z,42.805,6.029,13.3004,4.60039,2470.45,2022-7-17T07:18:17Z
2022-07-17T05:19:33Z,42.805,6.029,13.3006,4.60039,2470.46,2022-7-17T07:21:20Z
2022-07-17T05:22:36Z,42.805,6.029,13.3004,4.60041,2470.437,2022-7-17T07:24:23Z
2022-07-17T05:25:39Z,42.805,6.029,13.3005,4.60040,2470.474,2022-7-17T07:27:26Z
2022-07-17T05:28:43Z,42.805,6.029,13.3004,4.60039,2470.45,2022-7-17T07:30:29Z
2022-07-17T05:31:46Z,42.805,6.029,13.3004,4.60041,2470.474,2022-7-17T07:33:32Z
2022-07-17T05:34:49Z,42.805,6.029,13.3002,4.60039,2470.437,2022-7-17T07:36:35Z
2022-07-17T05:37:52Z,42.805,6.029,13.3004,4.60039,2470.45,2022-7-17T07:39:38Z
2022-07-17T05:40:55Z,42.805,6.029,13.3004,4.60041,2470.437,2022-7-17T07:42:42Z
2022-07-17T05:43:58Z,42.805,6.029,13.3009,4.60039,2470.474,2022-7-17T07:45:45Z
2022-07-17T05:47:01Z,42.805,6.029,13.3006,4.60039,2470.437,2022-7-17T07:48:48Z
2022-07-17T05:50:04Z,42.805,6.029,13.3004,4.60039,2470.474,2022-7-17T07:51:51Z
2022-07-17T05:53:08Z,42.805,6.029,13.3005,4.60039,2470.497,2022-7-17T07:54:54Z
2022-07-17T05:56:11Z,42.805,6.029,13.3008,4.60039,2470.437,2022-7-17T07:57:57Z
2022-07-17T05:59:14Z,42.805,6.029,13.3008,4.60039,2470.46,2022-7-17T08:01:00Z
2022-07-17T06:02:17Z,42.805,6.029,13.3005,4.60039,2470.483,2022-7-17T08:04:03Z
2022-07-17T06:05:20Z,42.805,6.029,13.3000,4.60039,2470.483,2022-7-17T08:07:07Z
2022-07-17T06:08:23Z,42.805,6.029,13.3001,4.60039,2470.46,2022-7-17T08:10:10Z
2022-07-17T06:11:26Z,42.805,6.029,13.3006,4.60039,2470.483,2022-7-17T08:13:13Z
2022-07-17T06:14:29Z,42.805,6.029,13.3006,4.60039,2470.46,2022-7-17T08:16:16Z
2022-07-17T06:17:33Z,42.805,6.029,13.3009,4.60040,2470.483,2022-7-17T08:19:19Z
2022-07-17T06:20:36Z,42.805,6.029,13.3004,4.60040,2470.497,2022-7-17T08:22:22Z
2022-07-17T06:23:39Z,42.805,6.029,13.3004,4.60040,2470.474,2022-7-17T08:25:25Z
2022-07-17T06:26:42Z,42.805,6.029,13.3006,4.60039,2470.483,2022-7-17T08:28:28Z
2022-07-17T06:29:45Z,42.805,6.029,13.3005,4.60040,2470.483,2022-7-17T08:31:32Z
2022-07-17T06:32:48Z,42.805,6.029,13.3004,4.60039,2470.483,2022-7-17T08:34:35Z
2022-07-17T06:35:51Z,42.805,6.029,13.3006,4.60039,2470.474,2022-7-17T08:37:38Z
2022-07-17T06:38:54Z,42.805,6.029,13.3002,4.60040,2470.483,2022-7-17T08:40:41Z
2022-07-17T06:41:57Z,42.805,6.029,13.3003,4.60039,2470.483,2022-7-17T08:43:44Z
2022-07-17T06:45:01Z,42.805,6.029,13.3005,4.60039,2470.507,2022-7-17T08:46:47Z
2022-07-17T06:48:04Z,42.805,6.029,13.3009,4.60040,2470.53,2022-7-17T08:49:50Z
2022-07-17T06:51:07Z,42.805,6.029,13.3004,4.60039,2470.483,2022-7-17T08:52:53Z
2022-07-17T06:54:10Z,42.805,6.029,13.3005,4.60039,2470.53,2022-7-17T08:55:56Z
2022-07-17T06:57:13Z,42.805,6.029,13.3006,4.60039,2470.507,2022-7-17T08:59:00Z
2022-07-17T07:00:16Z,42.805,6.029,13.3006,4.60039,2470.507,2022-7-17T09:02:03Z
2022-07-17T07:03:19Z,42.805,6.029,13.3006,4.60040,2470.507,2022-7-17T09:05:06Z
2022-07-17T07:06:22Z,42.805,6.029,13.3006,4.60039,2470.507,2022-7-17T09:08:09Z
2022-07-17T07:09:26Z,42.805,6.029,13.3005,4.60039,2470.507,2022-7-17T09:11:12Z
2022-07-17T07:12:29Z,42.805,6.029,13.3005,4.60039,2470.52,2022-7-17T09:14:15Z
2022-07-17T07:15:32Z,42.805,6.029,13.3002,4.60039,2470.53,2022-7-17T09:17:18Z
2022-07-17T07:18:35Z,42.805,6.029,13.3008,4.60039,2470.497,2022-7-17T09:20:21Z
2022-07-17T07:21:38Z,42.805,6.029,13.3000,4.60039,2470.544,2022-7-17T09:23:25Z
2022-07-17T07:24:41Z,42.805,6.029,13.3006,4.60040,2470.544,2022-7-17T09:26:28Z
2022-07-17T07:27:44Z,42.805,6.029,13.3010,4.60041,2470.52,2022-7-17T09:29:31Z
2022-07-17T07:30:47Z,42.805,6.029,13.3004,4.60040,2470.544,2022-7-17T09:32:34Z
2022-07-17T07:33:51Z,42.805,6.029,13.3004,4.60040,2470.53,2022-7-17T09:35:37Z
2022-07-17T07:36:54Z,42.805,6.029,13.3004,4.60039,2470.544,2022-7-17T09:38:40Z
2022-07-17T07:39:57Z,42.805,6.029,13.3006,4.60042,2470.567,2022-7-17T09:41:43Z
2022-07-17T07:43:00Z,42.805,6.029,13.3006,4.60039,2470.53,2022-7-17T09:44:46Z
2022-07-17T07:46:03Z,42.805,6.029,13.3004,4.60039,2470.544,2022-7-17T09:47:49Z
2022-07-17T07:49:06Z,42.805,6.029,13.3004,4.60039,2470.53,2022-7-17T09:50:53Z
2022-07-17T07:52:09Z,42.805,6.029,13.3007,4.60039,2470.544,2022-7-17T09:53:56Z
2022-07-17T07:55:12Z,42.805,6.029,13.3006,4.60039,2470.544,2022-7-17T09:56:59Z
2022-07-17T07:58:15Z,42.805,6.029,13.3006,4.60039,2470.591,2022-7-17T10:00:02Z
2022-07-17T08:01:19Z,42.805,6.029,13.3004,4.60040,2470.567,2022-7-17T10:03:05Z
2022-07-17T08:04:22Z,42.805,6.029,13.3004,4.60041,2470.544,2022-7-17T10:06:08Z
2022-07-17T08:07:25Z,42.805,6.029,13.3006,4.60039,2470.6,2022-7-17T10:09:11Z
2022-07-17T08:10:28Z,42.805,6.029,13.3006,4.60040,2470.563,2022-7-17T10:12:14Z
2022-07-17T08:13:31Z,42.805,6.029,13.3009,4.60041,2470.553,2022-7-17T10:15:18Z
2022-07-17T08:16:34Z,42.805,6.029,13.3007,4.60039,2470.553,2022-7-17T10:18:21Z
2022-07-17T08:19:37Z,42.805,6.029,13.3006,4.60039,2470.553,2022-7-17T10:21:24Z
2022-07-17T08:22:41Z,42.805,6.029,13.3007,4.60039,2470.591,2022-7-17T10:24:27Z
2022-07-17T08:25:44Z,42.805,6.029,13.3004,4.60039,2470.577,2022-7-17T10:27:30Z
2022-07-17T08:28:47Z,42.805,6.029,13.3006,4.60040,2470.6,2022-7-17T10:30:33Z
2022-07-17T08:31:50Z,42.805,6.029,13.3005,4.60040,2470.577,2022-7-17T10:33:36Z
2022-07-17T08:34:53Z,42.805,6.029,13.3006,4.60039,2470.577,2022-7-17T10:36:39Z
2022-07-17T08:37:56Z,42.805,6.029,13.3006,4.60039,2470.6,2022-7-17T10:39:43Z
2022-07-17T08:40:59Z,42.805,6.029,13.3004,4.60041,2470.591,2022-7-17T10:42:46Z
2022-07-17T08:44:02Z,42.805,6.029,13.3004,4.60039,2470.567,2022-7-17T10:45:49Z
2022-07-17T08:47:06Z,42.805,6.029,13.3003,4.60041,2470.577,2022-7-17T10:48:52Z
2022-07-17T08:50:09Z,42.805,6.029,13.3007,4.60040,2470.577,2022-7-17T10:51:55Z
2022-07-17T08:53:12Z,42.805,6.029,13.3006,4.60040,2470.591,2022-7-17T10:54:58Z
2022-07-17T08:56:15Z,42.805,6.029,13.3001,4.60039,2470.6,2022-7-17T10:58:01Z
2022-07-17T08:59:18Z,42.805,6.029,13.3003,4.60039,2470.553,2022-7-17T11:01:04Z
2022-07-17T09:02:21Z,42.805,6.029,13.3008,4.60040,2470.577,2022-7-17T11:04:08Z
2022-07-17T09:05:24Z,42.805,6.029,13.3002,4.60042,2470.6,2022-7-17T11:07:11Z
2022-07-17T09:08:27Z,42.805,6.029,13.3002,4.60040,2470.577,2022-7-17T11:10:14Z
2022-07-17T09:11:31Z,42.805,6.029,13.3009,4.60041,2470.577,2022-7-17T11:13:17Z
2022-07-17T09:14:34Z,42.805,6.029,13.3003,4.60041,2470.577,2022-7-17T11:16:20Z
2022-07-17T09:17:37Z,42.805,6.029,13.3007,4.60041,2470.614,2022-7-17T11:19:23Z
2022-07-17T09:20:40Z,42.805,6.029,13.3005,4.60040,2470.614,2022-7-17T11:22:26Z
2022-07-17T09:23:43Z,42.805,6.029,13.3004,4.60040,2470.577,2022-7-17T11:25:29Z
2022-07-17T09:26:46Z,42.805,6.029,13.3009,4.60042,2470.591,2022-7-17T11:28:33Z
2022-07-17T09:29:49Z,42.805,6.029,13.3007,4.60040,2470.577,2022-7-17T11:31:36Z
2022-07-17T09:32:52Z,42.805,6.029,13.3004,4.60039,2470.591,2022-7-17T11:34:39Z
2022-07-17T09:35:55Z,42.805,6.029,13.3003,4.60039,2470.591,2022-7-17T11:37:42Z
2022-07-17T09:38:59Z,42.805,6.029,13.3005,4.60040,2470.591,2022-7-17T11:40:45Z
2022-07-17T09:42:02Z,42.805,6.029,13.3004,4.60039,2470.591,2022-7-17T11:43:48Z
2022-07-17T09:45:05Z,42.805,6.029,13.3008,4.60038,2470.577,2022-7-17T11:46:51Z
2022-07-17T09:48:08Z,42.805,6.029,13.3006,4.60040,2470.591,2022-7-17T11:49:54Z
2022-07-17T09:51:11Z,42.805,6.029,13.3006,4.60039,2470.539,2022-7-17T11:52:58Z
2022-07-17T09:54:14Z,42.805,6.029,13.3005,4.60041,2470.6,2022-7-17T11:56:01Z
2022-07-17T09:57:17Z,42.805,6.029,13.3006,4.60039,2470.577,2022-7-17T11:59:04Z
2022-07-17T10:00:21Z,42.805,6.029,13.3004,4.60041,2470.6,2022-7-17T12:02:07Z
2022-07-17T10:03:24Z,42.805,6.029,13.3007,4.60038,2470.553,2022-7-17T12:05:10Z
2022-07-17T10:06:27Z,42.805,6.029,13.3006,4.60039,2470.577,2022-7-17T12:08:13Z
2022-07-17T10:09:30Z,42.805,6.029,13.3004,4.60039,2470.614,2022-7-17T12:11:16Z
2022-07-17T10:12:33Z,42.805,6.029,13.3006,4.60039,2470.553,2022-7-17T12:14:19Z
2022-07-17T10:15:36Z,42.805,6.029,13.3004,4.60039,2470.591,2022-7-17T12:17:23Z
2022-07-17T10:18:39Z,42.805,6.029,13.3007,4.60040,2470.553,2022-7-17T12:20:26Z
2022-07-17T10:21:42Z,42.805,6.029,13.3003,4.60041,2470.567,2022-7-17T12:23:29Z
2022-07-17T10:24:46Z,42.805,6.029,13.3004,4.60040,2470.6,2022-7-17T12:26:32Z
2022-07-17T10:27:49Z,42.805,6.029,13.3003,4.60042,2470.591,2022-7-17T12:29:35Z
2022-07-17T10:30:52Z,42.805,6.029,13.3009,4.60041,2470.591,2022-7-17T12:32:38Z
2022-07-17T10:33:55Z,42.805,6.029,13.3006,4.60038,2470.567,2022-7-17T12:35:41Z
2022-07-17T10:36:58Z,42.805,6.029,13.3006,4.60039,2470.577,2022-7-17T12:38:44Z
2022-07-17T10:40:01Z,42.805,6.029,13.3007,4.60039,2470.553,2022-7-17T12:41:48Z
2022-07-17T10:43:04Z,42.805,6.029,13.3006,4.60039,2470.553,2022-7-17T12:44:51Z
2022-07-17T10:46:07Z,42.805,6.029,13.3008,4.60039,2470.553,2022-7-17T12:47:54Z
2022-07-17T10:49:11Z,42.805,6.029,13.3005,4.60040,2470.591,2022-7-17T12:50:57Z
2022-07-17T10:52:14Z,42.805,6.029,13.3006,4.60039,2470.567,2022-7-17T12:54:00Z
2022-07-17T10:55:17Z,42.805,6.029,13.3009,4.60041,2470.53,2022-7-17T12:57:03Z
2022-07-17T10:58:20Z,42.805,6.029,13.3006,4.60039,2470.567,2022-7-17T13:00:06Z
2022-07-17T11:01:23Z,42.805,6.029,13.3002,4.60039,2470.577,2022-7-17T13:03:10Z
2022-07-17T11:04:26Z,42.805,6.029,13.3006,4.60040,2470.553,2022-7-17T13:06:13Z
2022-07-17T11:07:29Z,42.805,6.029,13.3004,4.60042,2470.567,2022-7-17T13:09:16Z
2022-07-17T11:10:32Z,42.805,6.029,13.3006,4.60039,2470.53,2022-7-17T13:12:19Z
2022-07-17T11:13:36Z,42.805,6.029,13.3008,4.60039,2470.553,2022-7-17T13:15:22Z
2022-07-17T11:16:39Z,42.805,6.029,13.3006,4.60039,2470.53,2022-7-17T13:18:25Z
2022-07-17T11:19:42Z,42.805,6.029,13.3002,4.60038,2470.567,2022-7-17T13:21:28Z
2022-07-17T11:22:45Z,42.805,6.029,13.3007,4.60039,2470.53,2022-7-17T13:24:31Z
2022-07-17T11:25:48Z,42.805,6.029,13.3008,4.60039,2470.553,2022-7-17T13:27:35Z
2022-07-17T11:28:51Z,42.805,6.029,13.3004,4.60039,2470.553,2022-7-17T13:30:38Z
2022-07-17T11:31:54Z,42.805,6.029,13.3009,4.60038,2470.53,2022-7-17T13:33:41Z
2022-07-17T11:34:57Z,42.805,6.029,13.3005,4.60039,2470.53,2022-7-17T13:36:44Z
2022-07-17T11:38:01Z,42.805,6.029,13.3008,4.60038,2470.553,2022-7-17T13:39:47Z
2022-07-17T11:41:04Z,42.805,6.029,13.3006,4.60039,2470.539,2022-7-17T13:42:50Z
2022-07-17T11:44:07Z,42.805,6.029,13.3007,4.60040,2470.544,2022-7-17T13:45:53Z
2022-07-17T11:47:10Z,42.805,6.029,13.3005,4.60039,2470.544,2022-7-17T13:48:56Z
2022-07-17T11:50:13Z,42.805,6.029,13.3007,4.60040,2470.553,2022-7-17T13:52:00Z
2022-07-17T11:53:16Z,42.805,6.029,13.3008,4.60039,2470.53,2022-7-17T13:55:03Z
2022-07-17T11:56:19Z,42.805,6.029,13.3004,4.60039,2470.53,2022-7-17T13:58:06Z
2022-07-17T11:59:22Z,42.805,6.029,13.3009,4.60039,2470.53,2022-7-17T14:01:09Z
2022-07-17T12:02:26Z,42.805,6.029,13.3008,4.60040,2470.53,2022-7-17T14:04:12Z
2022-07-17T12:05:29Z,42.805,6.029,13.3006,4.60039,2470.544,2022-7-17T14:07:15Z
2022-07-17T12:08:32Z,42.805,6.029,13.3001,4.60039,2470.53,2022-7-17T14:10:18Z
2022-07-17T12:11:35Z,42.805,6.029,13.3007,4.60039,2470.52,2022-7-17T14:13:21Z
2022-07-17T12:14:38Z,42.805,6.029,13.3008,4.60039,2470.507,2022-7-17T14:16:25Z
2022-07-17T12:17:41Z,42.805,6.029,13.3006,4.60039,2470.507,2022-7-17T14:19:28Z
2022-07-17T12:20:44Z,42.805,6.029,13.3006,4.60039,2470.483,2022-7-17T14:22:31Z
2022-07-17T12:23:47Z,42.805,6.029,13.3008,4.60040,2470.544,2022-7-17T14:25:34Z
2022-07-17T12:26:51Z,42.805,6.029,13.3009,4.60039,2470.497,2022-7-17T14:28:37Z
2022-07-17T12:29:54Z,42.805,6.029,13.3007,4.60039,2470.497,2022-7-17T14:31:40Z
2022-07-17T12:32:57Z,42.805,6.029,13.3004,4.60039,2470.52,2022-7-17T14:34:43Z
2022-07-17T12:36:00Z,42.805,6.029,13.3005,4.60040,2470.52,2022-7-17T14:37:47Z
2022-07-17T12:39:03Z,42.805,6.029,13.3004,4.60040,2470.553,2022-7-17T14:40:50Z
2022-07-17T12:42:06Z,42.805,6.029,13.3007,4.60040,2470.53,2022-7-17T14:43:53Z
2022-07-17T12:45:09Z,42.805,6.029,13.3009,4.60041,2470.497,2022-7-17T14:46:56Z
2022-07-17T12:48:12Z,42.805,6.029,13.3006,4.60041,2470.507,2022-7-17T14:49:59Z
2022-07-17T12:51:16Z,42.805,6.029,13.3006,4.60041,2470.53,2022-7-17T14:53:02Z
2022-07-17T12:54:19Z,42.805,6.029,13.3009,4.60040,2470.52,2022-7-17T14:56:05Z
2022-07-17T12:57:22Z,42.805,6.029,13.3005,4.60041,2470.507,2022-7-17T14:59:08Z
2022-07-17T13:00:25Z,42.805,6.029,13.3006,4.60041,2470.497,2022-7-17T15:02:11Z
2022-07-17T13:03:28Z,42.805,6.029,13.3008,4.60041,2470.497,2022-7-17T15:05:15Z
2022-07-17T13:06:31Z,42.805,6.029,13.3007,4.60040,2470.497,2022-7-17T15:08:18Z
2022-07-17T13:09:34Z,42.805,6.029,13.3003,4.60041,2470.483,2022-7-17T15:11:21Z
2022-07-17T13:12:37Z,42.805,6.029,13.3009,4.60042,2470.46,2022-7-17T15:14:24Z
2022-07-17T13:15:41Z,42.805,6.029,13.3009,4.60041,2470.474,2022-7-17T15:17:27Z
2022-07-17T13:18:44Z,42.805,6.029,13.3004,4.60042,2470.544,2022-7-17T15:20:30Z
2022-07-17T13:21:47Z,42.805,6.029,13.3006,4.60042,2470.483,2022-7-17T15:23:33Z
2022-07-17T13:24:50Z,42.805,6.029,13.3006,4.60042,2470.53,2022-7-17T15:26:36Z
2022-07-17T13:27:53Z,42.805,6.029,13.3011,4.60043,2470.497,2022-7-17T15:29:40Z
2022-07-17T13:30:56Z,42.805,6.029,13.3008,4.60042,2470.497,2022-7-17T15:32:43Z
2022-07-17T13:33:59Z,42.805,6.029,13.3006,4.60042,2470.507,2022-7-17T15:35:46Z
2022-07-17T13:37:02Z,42.805,6.029,13.3010,4.60042,2470.497,2022-7-17T15:38:49Z
2022-07-17T13:40:06Z,42.805,6.029,13.3006,4.60042,2470.46,2022-7-17T15:41:52Z
2022-07-17T13:43:09Z,42.805,6.029,13.3007,4.60042,2470.483,2022-7-17T15:44:55Z
2022-07-17T13:46:12Z,42.805,6.029,13.3005,4.60043,2470.497,2022-7-17T15:47:58Z
2022-07-17T13:49:15Z,42.805,6.029,13.3010,4.60042,2470.497,2022-7-17T15:51:01Z
2022-07-17T13:52:18Z,42.805,6.029,13.3006,4.60042,2470.497,2022-7-17T15:54:05Z
2022-07-17T13:55:21Z,42.805,6.029,13.3009,4.60041,2470.483,2022-7-17T15:57:08Z
2022-07-17T13:58:24Z,42.805,6.029,13.3008,4.60042,2470.46,2022-7-17T16:00:11Z
2022-07-17T14:01:27Z,42.805,6.029,13.3008,4.60042,2470.474,2022-7-17T16:03:14Z
2022-07-17T14:04:31Z,42.805,6.029,13.3005,4.60041,2470.46,2022-7-17T16:06:17Z
2022-07-17T14:07:34Z,42.805,6.029,13.3009,4.60044,2470.46,2022-7-17T16:09:20Z
2022-07-17T14:10:37Z,42.805,6.029,13.3014,4.60042,2470.483,2022-7-17T16:12:23Z
2022-07-17T14:13:40Z,42.805,6.029,13.3010,4.60042,2470.437,2022-7-17T16:15:26Z
2022-07-17T14:16:43Z,42.805,6.029,13.3009,4.60045,2470.483,2022-7-17T16:18:30Z
2022-07-17T14:19:46Z,42.805,6.029,13.3006,4.60044,2470.483,2022-7-17T16:21:33Z
2022-07-17T14:22:49Z,42.805,6.029,13.3009,4.60043,2470.474,2022-7-17T16:24:36Z
2022-07-17T14:25:52Z,42.805,6.029,13.3009,4.60042,2470.474,2022-7-17T16:27:39Z
2022-07-17T14:28:56Z,42.805,6.029,13.3004,4.60042,2470.474,2022-7-17T16:30:42Z
2022-07-17T14:31:59Z,42.805,6.029,13.3006,4.60042,2470.483,2022-7-17T16:33:45Z
2022-07-17T14:35:02Z,42.805,6.029,13.3009,4.60043,2470.483,2022-7-17T16:36:48Z
2022-07-17T14:38:05Z,42.805,6.029,13.3011,4.60042,2470.45,2022-7-17T16:39:51Z
2022-07-17T14:41:08Z,42.805,6.029,13.3007,4.60044,2470.46,2022-7-17T16:42:55Z
2022-07-17T14:44:11Z,42.805,6.029,13.3006,4.60042,2470.46,2022-7-17T16:45:58Z
2022-07-17T14:47:14Z,42.805,6.029,13.3009,4.60043,2470.46,2022-7-17T16:49:01Z
2022-07-17T14:50:17Z,42.805,6.029,13.3006,4.60044,2470.483,2022-7-17T16:52:04Z
2022-07-17T14:53:21Z,42.805,6.029,13.3005,4.60042,2470.483,2022-7-17T16:55:07Z
2022-07-17T14:56:24Z,42.805,6.029,13.3006,4.60044,2470.46,2022-7-17T16:58:10Z
2022-07-17T14:59:27Z,42.805,6.029,13.3009,4.60043,2470.483,2022-7-17T17:01:13Z
2022-07-17T15:02:30Z,42.805,6.029,13.3011,4.60043,2470.46,2022-7-17T17:04:17Z
2022-07-17T15:05:33Z,42.805,6.029,13.3010,4.60044,2470.46,2022-7-17T17:07:20Z
2022-07-17T15:08:36Z,42.805,6.029,13.3009,4.60044,2470.483,2022-7-17T17:10:23Z
2022-07-17T15:11:39Z,42.805,6.029,13.3010,4.60043,2470.45,2022-7-17T17:13:26Z
2022-07-17T15:14:42Z,42.805,6.029,13.3014,4.60043,2470.437,2022-7-17T17:16:29Z